Tracking 20092 objects as of 14-Dec-2019
HD Live streaming from Space Station
objects crossing your sky now

STTW-T2

Track STTW-T2 now!
STTW-T2 is classified as:


NORAD ID: 14899
Int'l Code: 1984-035A
Perigee: 35,771.9 km
Apogee: 35,826.7 km
Inclination: 13.3 °
Period: 1,436.4 minutes
Semi major axis: 42170 km
RCS: 3.981 m2 (large)
Launch date: April 8, 1984
Source: People's Republic of China (PRC)
Launch site: Xichang Space Center, China (XSC)
aabbcc
Your satellite tracking list
Your tracking list is empty




NASA's NSSDC Master Catalog

Two Line Element Set (TLE):
1 14899U 84035A   19346.40363910 -.00000320 +00000-0 +00000-0 0  9996
2 14899 013.3207 337.1422 0006490 108.2487 274.4706 01.00251936023529
Source of the keplerian elements: AFSPC